Simultaneous Nadir Overpasses (SNOs) Predictions

Prediction of SNOs between GOES-16 and NOAA-20 Satellite Orbit:

Table of predicted SNOs for the next 14.0 days since TLE Epoch: 3/12/2022
Index Date Time (GOES-16) GOES-16 Lat,Lon NOAA-20 Lat,Lon Distance(km) Time Diff (sec)
1 03/12/2022 06:32:27 -0.07, -75.22 0.22, -76.46 141.48 80
2 03/13/2022 06:11:04 -0.07, -75.22 -0.81, -71.93 375.02 80
3 03/14/2022 18:33:01 0.06, -75.23 -0.41, -77.23 228.72 80
4 03/15/2022 18:16:58 0.06, -75.24 0.62, -72.70 288.35 80
5 03/17/2022 06:38:47 -0.05, -75.25 0.56, -77.98 310.64 80
6 03/18/2022 06:17:23 -0.05, -75.26 -0.47, -73.45 206.57 80
7 03/19/2022 18:39:21 0.05, -75.28 -0.74, -78.75 396.35 80
8 03/20/2022 18:23:17 0.05, -75.29 0.29, -74.23 121.24 80
9 03/22/2022 06:45:07 -0.05, -75.31 0.88, -79.50 476.91 80
10 03/23/2022 06:23:43 -0.05, -75.32 -0.15, -74.97 40.60 80
11 03/25/2022 18:26:56 0.04, -75.35 -0.07, -75.74 44.61 80
